Seminole, TX

4:40 PM CDT on August 24, 2016 (GMT -0500)
Seminole

Weather History for KGNC - October, 2012

Change the Weather History Date:

Wednesday, October 3, 2012

  Actual Average (KHOB) Record (KHOB)
Temperature  
Mean Temperature 70 °F -  
Max Temperature 90 °F 79 °F 98 °F (2000)
Min Temperature 51 °F 53 °F 33 °F (1996)
Cooling Degree Days 6    
Growing Degree Days 20 (Base 50)    
Moisture  
Dew Point 47 °F    
Average Humidity 55    
Maximum Humidity 89    
Minimum Humidity 13    
Precipitation  
Precipitation 0.00 in - - ()
Sea Level Pressure  
Sea Level Pressure 29.95 in    
Wind  
Wind Speed 5 mph (SSW)    
Max Wind Speed 12 mph    
Max Gust Speed -    
Visibility 10 miles    
Events      
Averages and records for this station are not official NWS values.
T = Trace of Precipitation, MM = Missing Value Source: NWS Daily Summary

Daily Weather History Graph

Daily Weather History Graph

Search for Another Location

Airport or City:

Trip Planner

Search our weather history database for the weather conditions in past years. The results will help you decide how hot, cold, wet, or windy it might be!

Date:

Astronomy

Oct. 03, 2012 Rise Set
Actual Time 7:46 AM CDT 7:31 PM CDT
Civil Twilight 7:21 AM CDT 7:56 PM CDT
Nautical Twilight 6:53 AM CDT 8:25 PM CDT
Astronomical Twilight 6:24 AM CDT 8:53 PM CDT
Moon 9:39 PM CDT (10/3) 10:58 AM CDT (10/3)
Length of Visible Light 12h 34m
Length of Day
11h 45m
Waning Gibbous, 88% of the Moon is Illuminated
Oct 3
Waning Gibbous
Oct 8
Last Quarter
Oct 15
New
Oct 21
First Quarter
Oct 29
Full

Hourly Weather History & Observations

Time (CDT) Temp. Dew Point Humidity Pressure Visibility Wind Dir Wind Speed Gust Speed Precip Events Conditions
12:15 AM 60.3 °F 52.2 °F 75% 30.00 in 10.0 mi South 5.8 mph - N/A   Clear
12:35 AM 59.9 °F 51.8 °F 75% 29.99 in 10.0 mi South 6.9 mph - N/A   Clear
12:55 AM 59.0 °F 51.6 °F 76% 29.99 in 10.0 mi South 8.1 mph - N/A   Clear
1:15 AM 58.8 °F 50.9 °F 75% 29.98 in 10.0 mi South 6.9 mph - N/A   Clear
1:35 AM 59.0 °F 50.7 °F 74% 29.98 in 10.0 mi South 6.9 mph - N/A   Clear
1:55 AM 59.0 °F 50.4 °F 73% 29.98 in 10.0 mi South 6.9 mph - N/A   Clear
2:15 AM 58.6 °F 50.4 °F 74% 29.98 in 10.0 mi SSE 4.6 mph - N/A   Clear
2:35 AM 58.3 °F 50.2 °F 74% 29.98 in 10.0 mi SSE 4.6 mph - N/A   Clear
2:55 AM 57.6 °F 50.2 °F 76% 29.97 in 10.0 mi SE 4.6 mph - N/A   Clear
3:15 AM 56.7 °F 50.2 °F 79% 29.97 in 10.0 mi ESE 4.6 mph - N/A   Clear
3:35 AM 56.1 °F 50.2 °F 80% 29.97 in 10.0 mi SE 4.6 mph - N/A   Clear
3:55 AM 55.9 °F 50.0 °F 80% 29.96 in 10.0 mi SE 4.6 mph - N/A   Clear
4:15 AM 55.4 °F 50.0 °F 82% 29.96 in 10.0 mi SE 4.6 mph - N/A   Clear
4:35 AM 55.0 °F 50.0 °F 83% 29.95 in 10.0 mi SE 4.6 mph - N/A   Clear
4:55 AM 54.5 °F 50.0 °F 85% 29.96 in 10.0 mi ESE 3.5 mph - N/A   Clear
5:15 AM 53.6 °F 49.8 °F 87% 29.95 in 10.0 mi ESE 3.5 mph - N/A   Clear
5:35 AM 53.1 °F 49.6 °F 88% 29.96 in 10.0 mi Calm Calm - N/A   Clear
5:55 AM 52.9 °F 49.5 °F 88% 29.96 in 10.0 mi Calm Calm - N/A   Clear
6:15 AM 52.9 °F 49.3 °F 88% 29.96 in 10.0 mi Calm Calm - N/A   Clear
6:35 AM 52.9 °F 49.3 °F 88% 29.96 in 10.0 mi Calm Calm - N/A   Clear
6:55 AM 52.7 °F 49.1 °F 88% 29.96 in 10.0 mi Calm Calm - N/A   Clear
7:15 AM 52.2 °F 48.9 °F 89% 29.95 in 10.0 mi ESE 3.5 mph - N/A   Clear
7:35 AM 51.8 °F 48.6 °F 89% 29.95 in 10.0 mi ESE 3.5 mph - N/A   Clear
7:55 AM 51.4 °F 48.4 °F 89% 29.95 in 10.0 mi Calm Calm - N/A   Clear
8:15 AM 51.6 °F 48.6 °F 89% 29.95 in 10.0 mi Calm Calm - N/A   Clear
8:35 AM 52.9 °F 49.3 °F 88% 29.96 in 10.0 mi Calm Calm - N/A   Clear
8:55 AM 54.7 °F 50.0 °F 84% 29.96 in 10.0 mi Calm Calm - N/A   Clear
9:15 AM 56.5 °F 50.5 °F 80% 29.96 in 10.0 mi SSE 4.6 mph - N/A   Clear
9:35 AM 58.8 °F 50.5 °F 74% 29.96 in 10.0 mi South 5.8 mph - N/A   Clear
9:55 AM 61.0 °F 50.5 °F 68% 29.97 in 10.0 mi South 5.8 mph - N/A   Clear
10:15 AM 62.6 °F 50.5 °F 65% 29.98 in 10.0 mi SSW 6.9 mph - N/A   Clear
10:35 AM 64.2 °F 50.9 °F 62% 29.98 in 10.0 mi South 5.8 mph - N/A   Clear
10:55 AM 66.4 °F 51.3 °F 58% 29.98 in 10.0 mi SSW 8.1 mph - N/A   Clear
11:15 AM 68.5 °F 50.7 °F 53% 29.98 in 10.0 mi South 5.8 mph - N/A   Clear
11:35 AM 69.4 °F 50.7 °F 51% 29.98 in 10.0 mi SSW 6.9 mph - N/A   Clear
11:55 AM 71.6 °F 51.3 °F 49% 29.98 in 10.0 mi WSW 4.6 mph - N/A   Clear
12:15 PM 73.6 °F 50.7 °F 45% 29.97 in 10.0 mi SSW 4.6 mph - N/A   Clear
12:35 PM 75.9 °F 49.8 °F 40% 29.96 in 10.0 mi South 3.5 mph - N/A   Clear
12:55 PM 77.9 °F 48.7 °F 36% 29.96 in 10.0 mi Calm Calm - N/A   Clear
1:15 PM 79.5 °F 48.0 °F 33% 29.95 in 10.0 mi Calm Calm - N/A   Clear
1:35 PM 81.5 °F 45.5 °F 28% 29.94 in 10.0 mi WSW 3.5 mph - N/A   Clear
1:55 PM 83.1 °F 43.7 °F 25% 29.94 in 10.0 mi WSW 4.6 mph - N/A   Clear
2:15 PM 83.8 °F 43.2 °F 24% 29.93 in 10.0 mi Calm Calm - N/A   Clear
2:35 PM 85.1 °F 42.6 °F 22% 29.92 in 10.0 mi WSW 6.9 mph - N/A   Clear
2:55 PM 86.0 °F 42.6 °F 22% 29.92 in 10.0 mi WSW 4.6 mph - N/A   Clear
3:15 PM 86.7 °F 43.0 °F 22% 29.91 in 10.0 mi WSW 4.6 mph - N/A   Clear
3:35 PM 87.3 °F 41.5 °F 20% 29.91 in 10.0 mi NW 4.6 mph - N/A   Clear
3:55 PM 88.5 °F 40.3 °F 18% 29.91 in 10.0 mi West 8.1 mph - N/A   Clear
4:15 PM 89.2 °F 39.9 °F 18% 29.90 in 10.0 mi WNW 10.4 mph - N/A   Clear
4:35 PM 89.8 °F 38.7 °F 17% 29.89 in 10.0 mi West 8.1 mph - N/A   Clear
4:55 PM 90.3 °F 36.0 °F 15% 29.89 in 10.0 mi West 9.2 mph - N/A   Clear
5:15 PM 90.3 °F 35.1 °F 14% 29.89 in 10.0 mi WSW 3.5 mph - N/A   Clear
5:55 PM 90.5 °F 32.4 °F 13% 29.89 in 10.0 mi SSW 4.6 mph - N/A   Clear
6:15 PM 90.1 °F 33.1 °F 13% 29.89 in 10.0 mi WSW 5.8 mph - N/A   Clear
6:35 PM 89.2 °F 33.6 °F 14% 29.89 in 10.0 mi SW 6.9 mph - N/A   Clear
6:55 PM 88.0 °F 34.3 °F 15% 29.90 in 10.0 mi SW 4.6 mph - N/A   Clear
7:15 PM 84.9 °F 37.2 °F 18% 29.90 in 10.0 mi South 6.9 mph - N/A   Clear
7:35 PM 81.9 °F 42.8 °F 25% 29.90 in 10.0 mi South 10.4 mph - N/A   Clear
8:15 PM 77.0 °F 48.6 °F 37% 29.92 in 10.0 mi South 6.9 mph - N/A   Clear
8:35 PM 74.8 °F 49.6 °F 41% 29.93 in 10.0 mi South 5.8 mph - N/A   Clear
8:55 PM 72.9 °F 50.0 °F 44% 29.94 in 10.0 mi South 4.6 mph - N/A   Clear
9:35 PM 70.5 °F 50.0 °F 48% 29.94 in 10.0 mi SSW 6.9 mph - N/A   Clear
9:55 PM 69.8 °F 49.6 °F 49% 29.95 in 10.0 mi SSW 8.1 mph - N/A   Clear
10:15 PM 70.0 °F 48.2 °F 46% 29.95 in 10.0 mi SSW 9.2 mph - N/A   Clear
10:35 PM 71.1 °F 46.0 °F 41% 29.96 in 10.0 mi SSW 11.5 mph - N/A   Clear
10:55 PM 70.9 °F 46.0 °F 41% 29.96 in 10.0 mi SSW 11.5 mph - N/A   Clear
11:15 PM 70.2 °F 47.1 °F 44% 29.97 in 10.0 mi SW 8.1 mph - N/A   Clear
11:35 PM 68.5 °F 48.0 °F 48% 29.98 in 10.0 mi SW 9.2 mph - N/A   Clear
11:55 PM 68.2 °F 49.6 °F 51% 29.98 in 10.0 mi SW 8.1 mph - N/A   Clear